Location: *
(46.4833°N, 6.4667°E)
Time: 15:38:05
(UTC+00:00)

Daily predictions for brighter satellites

Satellite Brightness Start Highest point End
(mag) Time Altitude Azimuth Time Altitude Azimuth Time Altitude Azimuth
STARLINK-24 3.9 17:35:01 10° WSW 17:39:00 62° NNW 17:43:00 10° ENE
STARLINK-1029 3.0 17:36:45 10° WSW 17:39:55 83° NNW 17:43:07 10° ENE
Cosmos 1939 Rocket 3.4 17:36:08 10° SE 17:39:59 39° ENE 17:43:52 10° N
STARLINK-1037 4.1 17:36:57 10° SW 17:40:54 46° SE 17:44:52 10° ENE
USA 234 4.3 17:36:17 10° ENE 17:42:08 36° N 17:48:00 10° WNW
STARLINK-29 3.1 17:41:07 10° WNW 17:44:30 69° NNE 17:47:53 10° ESE
CZ-4 R/B 1.4 17:40:50 10° SSE 17:45:01 68° ENE 17:49:09 10° N
STARLINK-1059 4.0 17:41:56 10° SW 17:45:56 50° SE 17:49:56 10° ENE
NOSS 2-3 (D) 4.2 17:42:02 10° S 17:46:02 39° ESE 17:50:35 10° NE
SL-27 R/B 2.3 17:43:00 10° NNW 17:46:20 86° WSW 17:49:38 10° SSE
STARLINK-1016 3.4 17:43:52 10° WSW 17:47:07 59° NNW 17:50:23 10° NE
STARLINK-1008 3.5 17:44:15 10° WSW 17:47:31 59° NNW 17:50:50 10° NE
USA 229 DEB 3.7 17:41:20 10° SW 17:47:54 89° NW 17:54:50 10° NE
USA 229 3.7 17:41:27 10° SW 17:48:00 89° WNW 17:54:55 10° NE
STARLINK-81 4.0 17:44:41 10° WSW 17:48:39 58° NNW 17:52:39 10° ENE
Cosmos 1470 Rocket 4.1 17:45:32 10° SSE 17:49:32 37° E 17:53:35 10° NNE
STARLINK-54 4.1 17:46:35 10° WSW 17:50:33 54° NNW 17:54:31 10° NE
STARLINK-1025 3.5 17:47:36 10° WSW 17:50:51 56° NNW 17:54:07 10° NE
STARLINK-1057 3.9 17:46:53 10° SW 17:50:54 54° SE 17:54:57 10° ENE
STARLINK-75 4.3 17:48:40 10° W 17:51:49 35° NNW 17:54:59 10° NE
STARLINK-77 4.0 17:48:02 10° WSW 17:51:59 56° NNW 17:55:58 10° ENE
STARLINK-1017 3.6 17:49:16 10° WSW 17:52:31 55° NNW 17:55:47 10° NE
STARLINK-22 4.1 17:49:35 10° W 17:52:46 38° NNW 17:55:57 10° NE
STARLINK-25 4.1 17:49:42 10° WSW 17:53:39 55° NNW 17:57:37 10° NE
Centaur D AC-28 4.5 17:42:03 10° WSW 17:53:49 22° SSW 17:58:17 10° SSE
STARLINK-41 4.2 17:51:05 10° W 17:54:15 36° NNW 17:57:25 10° NE
NOSS 3-1 (A) 3.3 17:49:40 10° SSW 17:55:06 69° SE 18:01:27 10° NE
STARLINK-71 4.2 17:51:38 10° W 17:55:33 51° NNW 17:59:30 10° NE
Cosmos 1862 Rocket 3.6 17:51:31 10° N 17:55:49 59° ENE 18:00:06 10° SSE
STARLINK-1034 3.8 17:51:48 10° SW 17:55:51 58° SE 17:59:52 10° ENE
Cosmos 2242 Rocket 4.2 17:51:53 10° N 17:56:06 36° ENE 18:00:19 10° SE
COSMO-SKYMED 1 2.7 17:52:00 10° NNE 17:56:22 84° WNW 18:00:43 10° SSW
STARLINK-79 4.1 17:53:01 10° W 17:56:58 53° NNW 18:00:56 10° NE
STARLINK-52 3.0 17:53:59 10° WNW 17:57:22 77° NNE 18:00:45 10° ESE
STARLINK-1048 3.7 17:54:21 10° WSW 17:57:36 51° NNW 18:00:51 10° NE
Okean-O 3.7 17:53:27 10° S 17:57:46 52° W 18:02:07 10° NNW
Cosmos 1707 Rocket 4.3 17:53:46 10° NNW 17:58:10 61° W 18:02:33 10° S
STARLINK-78 4.1 17:54:43 10° W 17:58:39 52° NNW 18:02:36 10° NE
STARLINK-1049 3.7 17:56:04 10° W 17:59:18 50° NNW 18:02:33 10° NE
STARLINK-60 4.1 17:56:38 10° WNW 17:59:47 43° SW 18:02:55 10° SE
STARLINK-57 4.2 17:56:30 10° W 18:00:25 50° NNW 18:04:22 10° NE
STARLINK-1068 3.7 17:56:44 10° SW 18:00:49 63° SE 18:04:39 12° ENE
CENTAUR R/B 4.4 17:55:18 10° NW 18:00:55 23° N 18:07:06 10° ENE
STARLINK-1051 3.7 17:57:49 10° W 18:01:04 49° NNW 18:04:14 10° NE
STARLINK-1028 3.7 17:58:13 10° W 18:01:27 48° NNW 18:04:37 11° NE
STARLINK-64 4.4 17:58:09 10° W 18:01:32 37° NNW 18:04:54 10° NE
FALCON 9 DEB 3.2 17:58:08 10° WNW 18:01:35 78° SSW 18:05:01 10° SE
STARLINK-49 4.2 17:58:01 10° W 18:01:57 50° NNW 18:05:53 10° NE
Cosmos 1812 3.0 17:59:22 10° NNW 18:03:14 75° W 18:07:05 10° S
STARLINK-1021 3.8 18:00:00 10° W 18:03:14 47° NNW 18:06:19 11° NE
Cosmos 2369 Rocket 2.2 17:57:40 10° SSW 18:03:19 80° ESE 18:09:02 10° NNE
STARLINK-27 4.2 17:59:42 10° W 18:03:37 49° NNW 18:07:27 11° NE
Cosmos 921 Rocket 3.4 18:00:17 10° SSW 18:04:47 75° WNW 18:09:20 10° NNE
Ariane Rocket 3.6 18:00:13 10° SE 18:04:49 36° ENE 18:09:27 10° N
STARLINK-1019 3.8 18:01:46 10° W 18:05:00 46° NNW 18:08:02 11° NE
STARLINK-74 4.2 18:01:22 10° W 18:05:17 49° NNW 18:09:03 11° NE
STARLINK-1012 3.9 18:03:35 10° W 18:06:49 45° NNW 18:09:46 12° NE
STARLINK-39 4.3 18:03:02 10° W 18:06:56 48° NNW 18:10:38 11° NE
Lacrosse 5 3.6 18:04:47 10° SSE 18:07:11 13° ESE 18:08:21 12° ESE
STARLINK-31 4.3 18:04:43 10° W 18:08:37 47° NNW 18:12:14 12° NE
Okean 1-7 4.0 18:05:29 10° NNE 18:09:09 26° ENE 18:12:48 10° SE
STARLINK-1026 3.9 18:07:11 10° W 18:10:24 44° NNW 18:13:12 13° NE
STARLINK-69 4.4 18:06:35 10° W 18:10:28 45° NNW 18:14:00 12° NE
STARLINK-1060 3.6 18:06:38 10° SW 18:10:45 74° SSE 18:14:13 14° ENE
STARLINK-1014 3.8 18:07:22 10° WSW 18:10:45 52° NNW 18:13:43 13° NE
SJ-6B 4.3 18:11:06 16° ENE 18:11:49 16° ENE 18:14:15 10° NNE
STARLINK-21 4.3 18:08:04 10° W 18:11:58 45° NNW 18:15:26 12° NE
STARLINK-1013 4.0 18:09:01 10° W 18:12:13 43° NNW 18:14:58 13° NE
ATLAS 3B R/B 4.4 18:08:11 10° NW 18:12:31 18° N 18:16:55 10° NE
Cosmos 1703 Rocket 4.2 18:08:42 10° N 18:12:46 33° ENE 18:16:49 10° SE
CZ-2D R/B 3.2 18:09:55 10° SSE 18:13:49 88° ENE 18:17:44 10° NNW
STARLINK-45 4.4 18:09:58 10° W 18:13:50 43° NNW 18:17:13 13° NE
STARLINK-1009 4.0 18:10:49 10° W 18:14:02 42° NNW 18:16:42 14° NE
STARLINK-70 4.4 18:11:34 10° W 18:15:25 43° NNW 18:18:45 13° NE
STARLINK-1030 3.6 18:11:37 10° SW 18:15:45 79° SSE 18:19:02 16° ENE
STARLINK-1015 4.0 18:12:40 10° W 18:15:52 41° NNW 18:18:28 14° NE
Cosmos 1833 4.2 18:10:28 10° NNW 18:16:15 70° ENE 18:21:57 10° SE
STARLINK-76 4.4 18:13:05 10° W 18:16:56 44° NNW 18:20:13 14° NE
STARLINK-23 4.4 18:14:45 10° W 18:18:36 43° NNW 18:21:48 14° NE
NOSS 2-3 (C) 3.6 18:15:43 10° SSW 18:20:02 80° SE 18:25:10 10° NE
STARLINK-32 4.4 18:16:25 10° W 18:20:17 42° NNW 18:23:24 15° NE
STARLINK-1020 3.6 18:16:34 10° SW 18:20:42 84° SSE 18:23:47 18° ENE
SJ 16-02 2.2 18:17:40 10° N 18:21:34 30° ENE 18:23:52 19° ESE
STARLINK-40 4.5 18:18:05 10° W 18:21:55 42° NNW 18:24:58 15° NE
FREGAT/IRIS 4.2 18:23:34 17° NE 18:23:34 17° NE 18:24:46 10° NNE
STARLINK-1047 3.6 18:18:58 10° WSW 18:23:09 89° SSE 18:26:11 18° ENE
STARLINK-44 4.5 18:19:46 10° W 18:23:36 41° NNW 18:26:35 15° NE
H-2A R/B 2.7 18:19:06 10° SE 18:24:00 38° ENE 18:29:00 10° N
DMSP B5D1-3 4.4 18:19:07 10° NNE 18:24:17 73° ESE 18:29:25 10° S
ARGOS 3.8 18:20:35 10° SE 18:25:24 34° ENE 18:30:15 10° N
Cosmos 1937 Rocket 4.3 18:21:03 10° N 18:25:42 30° ENE 18:28:21 20° ESE
STARLINK-1052 3.6 18:21:34 10° WSW 18:25:42 90° SE 18:28:35 19° ENE
CSL-04 Rocket 4.0 18:23:02 10° S 18:28:33 70° WSW 18:34:02 10° NNW
Cosmos 2263 4.3 18:25:04 10° SSW 18:30:51 88° WNW 18:36:39 10° NNE
Cosmos 1346 Rocket 2.7 18:27:34 10° S 18:31:33 84° E 18:35:32 10° NNE
BREEZE-M DEB (TANK) 3.3 18:29:34 10° WNW 18:32:19 75° SSW 18:37:09 17° ESE
STARLINK-1023 4.3 18:32:06 10° W 18:35:02 32° NNW 18:36:37 20° NE
YAOGAN 1 3.7 18:30:58 10° S 18:35:08 46° W 18:39:18 10° NNW
STARLINK-43 4.0 18:31:45 10° NW 18:35:17 40° NNE 18:36:38 28° ENE
STARLINK-1033 3.6 18:31:30 10° WSW 18:35:38 80° NNW 18:38:07 23° ENE
STARLINK-1041 4.5 18:33:48 10° SSW 18:37:29 32° SE 18:38:25 28° ESE
Nadezhda 4 Rocket 4.4 18:32:35 10° N 18:38:31 41° ENE 18:44:27 10° SE
Cosmos 1464 Rocket 4.1 18:33:29 10° SSE 18:39:40 56° E 18:45:54 10° NNE
Cosmos 44 Rocket 3.7 18:36:36 10° NNW 18:41:07 42° NE 18:42:58 29° E
OE (NEXTSAT) 4.3 18:38:13 10° W 18:41:43 80° S 18:42:51 40° ESE
STARLINK-1038 4.3 18:38:40 10° SSW 18:42:26 34° SE 18:43:12 31° ESE
STARLINK-1035 3.9 18:38:37 10° WSW 18:42:51 69° NNW 18:45:13 25° NE
STARLINK-1024 3.8 18:41:30 10° WSW 18:45:38 71° NNW 18:47:43 28° NE
Cosmos 2297 Rocket 3.6 18:42:57 10° N 18:47:05 20° NE 18:47:51 19° NE
STARLINK-1046 4.2 18:43:32 10° SSW 18:47:21 37° SE 18:47:57 35° ESE
Cosmos 1933 Rocket 3.7 18:43:01 10° SSW 18:47:25 75° W 18:51:50 10° N
NOSS 3-1 (C) 4.5 18:42:30 10° WSW 18:47:52 43° NW 18:54:09 10° NNE
Meteor 1-20 Rocket 4.1 18:46:32 10° S 18:52:00 82° E 18:57:35 10° NNE
STARLINK-1039 4.1 18:48:25 10° SSW 18:52:18 40° SE 18:52:44 39° ESE
STARLINK-1027 4.1 18:49:19 10° WSW 18:53:31 59° NNW 18:55:28 29° NE
STARLINK-1007 4.5 18:50:44 10° WNW 18:53:38 29° NNW 18:54:28 25° NNE
Meteor 1-18 Rocket 4.2 18:48:59 10° N 18:54:56 75° ENE 19:00:45 10° SSE
STARLINK-1032 3.9 18:51:29 10° WSW 18:55:35 63° NNW 18:57:17 33° NE
STARLINK-80 4.3 18:52:59 10° NW 18:56:33 36° NNE 18:57:10 33° NE
Cosmos 405 2.8 18:53:07 10° N 18:56:41 84° E 18:58:22 29° SSE
STARLINK-1045 3.9 18:53:20 10° SSW 18:57:16 44° SE 18:57:32 43° SE
Cosmos 2221 Rocket 4.4 18:53:24 10° N 18:56:58 33° ENE 18:56:58 33° ENE
Cosmos 1943 Rocket 3.7 18:52:30 10° WSW 18:57:33 35° NW 19:02:36 10° NNE
ADEOS Rocket 3.8 18:49:50 10° NNE 18:57:37 76° WNW 19:05:15 10° SSW
COSMOS 2487 2.6 18:54:16 10° NNW 18:57:44 71° WSW 18:59:29 26° S
MOS 1 4.2 18:53:00 10° SSE 18:58:39 75° ENE 19:04:19 10° NNW
CZ-2C R/B 3.3 18:53:41 10° SSE 18:59:25 62° ENE 19:05:02 10° N
Cosmos 2034 Rocket 3.9 18:54:13 10° S 19:00:12 57° E 19:06:13 10° NNE
STARLINK-1011 4.0 18:56:29 10° WSW 19:00:35 59° NNW 19:02:03 36° NE
Cosmos 468 Rocket 3.9 18:56:31 10° S 19:01:43 64° ESE 19:07:00 10° NNE
STARLINK-1050 3.8 18:58:18 10° SW 19:02:17 49° SE 19:02:26 49° SE
Okean 1 3.1 18:58:30 10° N 19:02:32 81° E 19:04:38 27° SSE
Timation 2 Rocket 4.1 18:55:55 10° NNW 19:02:49 71° ENE 19:07:09 24° SE
Lacrosse 5 rocket 3.1 18:59:11 10° NW 19:02:56 24° NNE 19:04:00 22° NNE
STARLINK-1036 4.1 19:01:30 10° WSW 19:05:35 56° NNW 19:06:51 38° NE
Cosmos 2227 Rocket 3.4 19:01:21 10° N 19:05:50 23° NE 19:05:52 23° NE
BREEZE-M DEB (TANK) 2.9 19:03:51 10° WNW 19:06:06 61° N 19:06:06 61° N
SPOT 3 Rocket 3.7 19:05:25 39° ESE 19:06:57 52° ENE 19:12:01 10° N
STARLINK-1055 3.7 19:03:13 10° SW 19:07:11 53° SE 19:07:11 53° SE
Meteor 1-14 Rocket 4.0 19:05:03 10° S 19:10:33 77° E 19:16:08 10° NNE
STARLINK-1044 4.1 19:06:31 10° W 19:10:34 53° NNW 19:11:37 41° NNE
Meteor 2-11 Rocket 4.4 19:05:14 10° S 19:11:20 90° WNW 19:17:28 10° N
STARLINK-1031 4.2 19:07:52 10° W 19:11:49 48° NNW 19:12:46 40° NNE
STARLINK-1022 3.7 19:08:10 10° SW 19:12:00 56° SSE 19:12:00 56° SSE
Gbstr 26 Del rocket 3.0 19:09:49 10° SW 19:13:56 71° SSE 19:14:28 63° ESE
Cosmos 1898 Rocket 3.4 19:08:54 10° NNW 19:14:07 85° WSW 19:17:01 27° SSE
STARLINK-1042 3.8 19:13:05 10° SW 19:16:46 58° S 19:16:46 58° S
STARLINK-1037 4.2 19:16:28 10° W 19:20:30 49° NNW 19:21:08 44° N
STARLINK-1056 3.8 19:18:02 10° SW 19:21:34 58° SSW 19:21:34 58° SSW
Cosmos 1092 Rocket 4.0 19:17:00 10° N 19:23:15 57° ENE 19:24:43 47° ESE
USA 234 4.0 19:21:54 30° NE 19:24:15 40° NNE 19:30:15 10° NW
STARLINK-1059 4.3 19:21:34 10° W 19:25:34 46° NNW 19:25:59 45° N
STARLINK-1054 4.0 19:23:00 10° SW 19:26:20 55° SSW 19:26:20 55° SSW
Cosmos 1763 Rocket 3.4 19:21:58 10° SSW 19:27:11 85° ESE 19:32:31 10° NNE
Cosmos 2219 3.6 19:24:40 10° NNW 19:29:58 46° NE 19:29:58 46° NE
Meteor 1-19 Rocket 4.4 19:24:45 10° NNW 19:30:34 73° W 19:35:17 15° S
Meteor 2-4 Rocket 3.7 19:24:38 10° N 19:30:34 75° ENE 19:32:13 49° SSE
STARLINK-1057 4.4 19:26:36 10° W 19:30:35 45° NNW 19:30:47 44° N
Cosmos 1570 Rocket 3.9 19:25:28 10° S 19:30:09 64° SE 19:30:09 64° SE
STARLINK-1062 4.2 19:27:57 10° SW 19:31:07 51° SW 19:31:07 51° SW
NOSS 3-2 (A) 4.3 19:25:13 10° NW 19:32:17 49° NE 19:34:00 43° ENE
STARLINK-1034 4.5 19:31:36 10° W 19:35:33 43° NNW 19:35:33 43° NNW
Resurs 01 Rocket 3.2 19:38:52 25° N 19:38:52 25° N 19:40:53 10° N
STARLINK-1053 4.4 19:32:55 10° SW 19:35:53 46° SW 19:35:53 46° SW
Cosmos 2195 Rocket 4.4 19:32:19 10° N 19:38:25 61° ENE 19:38:26 61° E
SL-08 RB Rocket 3.9 19:45:57 66° W 19:45:57 66° W 19:50:11 10° NNW
SJ-6B 4.0 19:46:42 39° WNW 19:46:42 39° WNW 19:49:46 10° NNW
Cosmos 2369 Rocket 4.5 19:43:44 10° W 19:48:02 22° NW 19:52:23 10° N
Lacrosse 5 2.7 19:44:17 10° SW 19:47:37 41° SSW 19:47:37 41° SSW
MetOp-A 4.0 19:50:10 84° SW 19:50:18 85° WSW 19:55:42 10° NNW
ARGOS Delta rocket 4.2 19:51:19 54° W 19:51:19 54° W 19:55:40 10° NNW
CENTAUR R/B 3.6 19:46:29 10° NW 19:53:49 43° NE 19:54:46 41° NE
Meteor 1-13 Rocket 4.3 19:53:47 10° N 19:59:12 76° N 19:59:12 76° N
SJ 16-02 3.0 19:56:15 10° NW 20:00:07 30° W 20:00:55 28° WSW
H-2A R/B 3.6 19:58:34 10° SSW 20:03:25 34° W 20:08:22 10° NNW
ATLAS 3B R/B 3.7 19:59:37 10° NNW 20:05:09 31° NNE 20:05:09 31° NNE
ARGOS 4.4 20:01:41 16° SSW 20:05:35 38° W 20:10:39 10° NNW
Cosmos 1627 Rocket 4.4 20:00:15 10° N 20:05:55 75° N 20:05:55 75° N
Cosmos 2026 Rocket 4.4 20:24:26 10° NNW 20:29:34 57° NW 20:29:34 57° NW
USA 238 DEB 3.9 20:24:18 10° NW 20:30:44 73° NW 20:30:44 73° NW
USA 238 3.9 20:24:24 10° NW 20:30:47 73° NW 20:30:47 73° NW
Cosmos 2297 Rocket 3.3 20:26:12 10° NNW 20:29:41 39° NNW 20:29:41 39° NNW
Lacrosse 5 rocket 4.1 20:38:22 10° NW 20:39:39 18° NW 20:39:39 18° NW
Cosmos 2227 Rocket 3.7 20:44:49 10° NNW 20:47:42 31° NW 20:47:42 31° NW
BREEZE-M DEB (TANK) 4.5 20:46:25 10° WNW 20:56:33 48° WNW 20:56:33 48° WNW
USA 234 4.2 21:09:15 42° NW 21:09:15 42° NW 21:13:20 10° NW
CENTAUR R/B 4.1 21:37:08 10° NW 21:41:57 41° NW 21:41:57 41° NW
